Location: Knowlton
(51.2333°N, 1.2667°E)
Time: 10:30:56
(UTC+00:00)

USA 229 DEB - Pass Details

Date: 18 April 2021
Orbit: 960 x 1252 km, 63.4° (Epoch: 23 April)

Event Time Altitude Azimuth Distance (km) Brightness Sun altitude
Rises 21:31:52 0° 311° (NW) 3,890 8.1 -20.4°
Reaches altitude 10° 21:34:33 10° 316° (NW) 2,974 7.2 -20.7°
Maximum altitude 21:41:32 54° 34° (NNE) 1,394 4.4 -21.3°
Enters shadow 21:46:08 24° 101° (ESE) 2,260 5.0 -21.7°
